When you browse on this site, cookies collect data to enhance your experience and personalize the content and advertising you see.
Visit our Privacy Policy to learn more. By continuing to use the site, you agree to this use of cookies and data.
  • In Romania
  • List of Countries
  • For 7 days
  • Water Temperature
  • Weather Map
  • Weather Widgets
  • user-avatar
    Login

    Hourly Weather Świdnica

    Today, 12 November, Tuesday

    Time Temperature Precipitation Wind Pressure Humidity
    00:00 +3°C° 0 mm 4 mps 732 mmHg 85%
    01:00 +4°C° 0 mm 4 mps 732 mmHg 85%
    02:00 +4°C° 0 mm 4 mps 732 mmHg 85%
    03:00 +5°C° 0 mm 3 mps 732 mmHg 86%
    04:00 +5°C° 0 mm 3 mps 732 mmHg 86%
    05:00 +5°C° 0 mm 3 mps 732 mmHg 87%
    06:00 +6°C° 0 mm 2 mps 732 mmHg 87%
    07:00 +6°C° 0 mm 2 mps 732 mmHg 87%
    08:00 +6°C° 0 mm 2 mps 733 mmHg 84%
    09:00 +6°C° 0 mm 2 mps 733 mmHg 81%
    10:00 +6°C° 0 mm 2 mps 733 mmHg 78%
    11:00 +7°C° 0.1 mm 1 mps 733 mmHg 79%
    12:00 +7°C° 0.1 mm 1 mps 732 mmHg 80%
    13:00 +7°C° 0.1 mm 1 mps 732 mmHg 82%
    14:00 +6°C° 0.2 mm 1 mps 732 mmHg 84%
    15:00 +6°C° 0.2 mm 1 mps 732 mmHg 87%
    16:00 +5°C° 0.2 mm 0 mps 731 mmHg 90%
    17:00 +6°C° 0.4 mm 1 mps 731 mmHg 92%
    18:00 +6°C° 0.4 mm 1 mps 731 mmHg 93%
    19:00 +6°C° 0.4 mm 1 mps 731 mmHg 95%
    20:00 +6°C° 0.8 mm 1 mps 731 mmHg 95%
    21:00 +6°C° 0.8 mm 1 mps 731 mmHg 96%
    22:00 +6°C° 0.8 mm 1 mps 730 mmHg 97%
    23:00 +6°C° 1 mm 1 mps 730 mmHg 97%

    Tomorrow, 13 November, Wednesday

    Time Temperature Precipitation Wind Pressure Humidity
    00:00 +6°C° 1 mm 1 mps 730 mmHg 97%
    01:00 +6°C° 1 mm 1 mps 730 mmHg 97%
    02:00 +6°C° 0.3 mm 1 mps 729 mmHg 97%
    03:00 +5°C° 0.3 mm 2 mps 729 mmHg 97%
    04:00 +5°C° 0.3 mm 2 mps 728 mmHg 97%
    05:00 +5°C° 0.1 mm 1 mps 728 mmHg 97%
    06:00 +5°C° 0.1 mm 1 mps 728 mmHg 96%
    07:00 +5°C° 0.1 mm 1 mps 728 mmHg 96%
    08:00 +5°C° 0.1 mm 1 mps 728 mmHg 96%
    09:00 +5°C° 0.1 mm 1 mps 728 mmHg 95%
    10:00 +4°C° 0.1 mm 2 mps 728 mmHg 94%
    11:00 +4°C° 0.7 mm 2 mps 728 mmHg 94%
    12:00 +4°C° 0.7 mm 2 mps 728 mmHg 95%
    13:00 +4°C° 0.7 mm 2 mps 728 mmHg 95%
    14:00 +4°C° 1 mm 2 mps 728 mmHg 95%
    15:00 +4°C° 1 mm 2 mps 728 mmHg 96%
    16:00 +4°C° 1 mm 2 mps 728 mmHg 96%
    17:00 +4°C° 1.3 mm 2 mps 728 mmHg 96%
    18:00 +3°C° 1.3 mm 3 mps 728 mmHg 96%
    19:00 +3°C° 1.3 mm 3 mps 728 mmHg 96%
    20:00 +1°C° 4.4 mm 4 mps 727 mmHg 96%
    21:00 +1°C° 4.4 mm 4 mps 727 mmHg 97%
    22:00 0°C° 4.4 mm 4 mps 727 mmHg 98%
    23:00 0°C° 1.5 mm 4 mps 728 mmHg 97%

    Day after tomorrow, 14 November, Thursday

    Time Temperature Precipitation Wind Pressure Humidity
    00:00 0°C° 1.5 mm 4 mps 729 mmHg 97%
    01:00 +1°C° 1.5 mm 3 mps 729 mmHg 97%
    02:00 +2°C° 0 mm 2 mps 730 mmHg 97%
    03:00 +2°C° 0 mm 2 mps 730 mmHg 96%
    04:00 +3°C° 0 mm 1 mps 731 mmHg 95%
    05:00 +3°C° 0 mm 1 mps 731 mmHg 95%
    06:00 +3°C° 0 mm 1 mps 732 mmHg 94%
    07:00 +3°C° 0 mm 1 mps 732 mmHg 93%
    08:00 +3°C° 0 mm 1 mps 732 mmHg 92%
    09:00 +4°C° 0 mm 1 mps 732 mmHg 91%
    10:00 +4°C° 0 mm 2 mps 733 mmHg 89%
    11:00 +4°C° 0 mm 2 mps 732 mmHg 89%
    12:00 +5°C° 0 mm 2 mps 732 mmHg 88%
    13:00 +4°C° 0 mm 3 mps 732 mmHg 87%
    14:00 +5°C° 0 mm 2 mps 732 mmHg 88%
    15:00 +5°C° 0 mm 2 mps 732 mmHg 90%
    16:00 +5°C° 0 mm 2 mps 732 mmHg 92%
    17:00 +5°C° 0 mm 2 mps 732 mmHg 92%
    18:00 +5°C° 0 mm 2 mps 732 mmHg 93%
    19:00 +5°C° 0 mm 2 mps 732 mmHg 94%
    20:00 +4°C° 0 mm 2 mps 731 mmHg 95%
    21:00 +4°C° 0 mm 2 mps 731 mmHg 96%
    22:00 +4°C° 0 mm 2 mps 731 mmHg 97%
    23:00 +4°C° 0 mm 2 mps 730 mmHg 97%

    15 November, Friday

    Time Temperature Precipitation Wind Pressure Humidity
    00:00 +4°C° 0 mm 2 mps 730 mmHg 98%
    01:00 +5°C° 0 mm 2 mps 730 mmHg 98%
    02:00 +5°C° 0 mm 2 mps 729 mmHg 97%
    03:00 +5°C° 0 mm 2 mps 729 mmHg 97%
    04:00 +4°C° 0 mm 3 mps 729 mmHg 96%
    05:00 +5°C° 0 mm 3 mps 729 mmHg 95%
    06:00 +5°C° 0 mm 3 mps 729 mmHg 94%
    07:00 +6°C° 0 mm 4 mps 729 mmHg 93%
    08:00 +7°C° 0 mm 4 mps 729 mmHg 89%
    09:00 +10°C° 0 mm 4 mps 729 mmHg 86%
    10:00 +10°C° 0 mm 5 mps 729 mmHg 83%
    11:00 +12°C° 0 mm 5 mps 729 mmHg 79%
    12:00 +13°C° 0 mm 5 mps 729 mmHg 76%
    13:00 +14°C° 0 mm 5 mps 729 mmHg 72%
    14:00 +13°C° 0 mm 4 mps 729 mmHg 76%
    15:00 +12°C° 0 mm 4 mps 729 mmHg 79%
    16:00 +11°C° 0 mm 4 mps 729 mmHg 82%
    17:00 +10°C° 0 mm 3 mps 730 mmHg 84%
    18:00 +10°C° 0 mm 3 mps 730 mmHg 85%
    19:00 +10°C° 0 mm 3 mps 730 mmHg 87%
    20:00 +9°C° 0 mm 3 mps 731 mmHg 87%
    21:00 +9°C° 0 mm 3 mps 731 mmHg 87%
    22:00 +9°C° 0 mm 3 mps 731 mmHg 88%
    23:00 +9°C° 0 mm 3 mps 731 mmHg 88%

    16 November, Saturday

    Time Temperature Precipitation Wind Pressure Humidity
    00:00 +9°C° 0 mm 3 mps 731 mmHg 87%
    01:00 +9°C° 0 mm 3 mps 731 mmHg 87%
    02:00 +8°C° 0 mm 4 mps 730 mmHg 85%
    03:00 +9°C° 0 mm 5 mps 730 mmHg 83%
    04:00 +9°C° 0 mm 5 mps 730 mmHg 82%
    05:00 +9°C° 0 mm 5 mps 730 mmHg 83%
    06:00 +9°C° 0 mm 5 mps 730 mmHg 84%
    07:00 +9°C° 0 mm 5 mps 731 mmHg 85%
    08:00 +9°C° 0 mm 5 mps 732 mmHg 83%
    09:00 +10°C° 0 mm 5 mps 733 mmHg 81%
    10:00 +12°C° 0 mm 5 mps 734 mmHg 79%
    11:00 +12°C° 0 mm 4 mps 734 mmHg 78%
    12:00 +12°C° 0 mm 3 mps 734 mmHg 77%
    13:00 +12°C° 0 mm 3 mps 734 mmHg 76%
    14:00 +12°C° 0 mm 2 mps 735 mmHg 78%
    15:00 +11°C° 0 mm 1 mps 735 mmHg 81%
    16:00 +11°C° 0 mm 1 mps 735 mmHg 84%
    17:00 +10°C° 0 mm 1 mps 735 mmHg 85%
    18:00 +10°C° 0 mm 1 mps 735 mmHg 86%
    19:00 +10°C° 0 mm 1 mps 735 mmHg 87%
    20:00 +10°C° 0 mm 1 mps 736 mmHg 89%
    21:00 +10°C° 0 mm 1 mps 736 mmHg 90%
    22:00 +10°C° 0 mm 1 mps 736 mmHg 91%
    23:00 +10°C° 0.1 mm 1 mps 735 mmHg 92%

    17 November, Sunday

    Time Temperature Precipitation Wind Pressure Humidity
    00:00 +10°C° 0.1 mm 1 mps 735 mmHg 92%
    01:00 +9°C° 0.1 mm 2 mps 734 mmHg 93%
    02:00 +9°C° 0 mm 2 mps 734 mmHg 92%
    03:00 +9°C° 0 mm 2 mps 733 mmHg 91%
    04:00 +9°C° 0 mm 3 mps 733 mmHg 90%
    05:00 +9°C° 0 mm 3 mps 733 mmHg 88%
    06:00 +9°C° 0 mm 3 mps 732 mmHg 86%
    07:00 +9°C° 0 mm 3 mps 732 mmHg 85%
    08:00 +10°C° 0 mm 4 mps 732 mmHg 81%
    09:00 +11°C° 0 mm 4 mps 733 mmHg 77%
    10:00 +12°C° 0 mm 4 mps 733 mmHg 73%
    11:00 +13°C° 0 mm 4 mps 732 mmHg 72%
    12:00 +13°C° 0 mm 4 mps 732 mmHg 71%
    13:00 +13°C° 0 mm 4 mps 732 mmHg 70%
    14:00 +13°C° 0 mm 4 mps 731 mmHg 72%
    15:00 +12°C° 0 mm 4 mps 731 mmHg 74%
    16:00 +12°C° 0 mm 4 mps 731 mmHg 76%
    17:00 +11°C° 0 mm 4 mps 731 mmHg 77%
    18:00 +11°C° 0 mm 4 mps 731 mmHg 77%
    19:00 +11°C° 0 mm 4 mps 731 mmHg 78%
    20:00 +11°C° 0 mm 4 mps 731 mmHg 78%
    21:00 +11°C° 0 mm 4 mps 731 mmHg 78%
    22:00 +10°C° 0 mm 3 mps 731 mmHg 78%
    23:00 +10°C° 0 mm 3 mps 731 mmHg 79%
    Show more